Theta_e
318 318 318 317 316 316 316 316 316 315 315 314 314 314 314 315 308 293 291 301 307 316 311 297 295 294 295 292 293 290 279 276 279 279 280 287 286 290 291 287 288 288 286 290 293
317 318 317 317 315 315 316 316 316 316 315 315 314 314 314 314 297 288 298 313 313 314 296 293 291 292 288 289 289 284 278 280 284 285 284 287 289 288 286 285 284 286 289 291 292
317 317 317 317 316 315 315 315 315 315 315 315 315 314 314 309 290 286 307 311 312 305 296 294 292 291 287 288 287 286 280 284 287 288 289 288 288 288 284 282 285 284 287 289 289
316 317 317 316 316 315 314 314 315 315 315 313 312 313 314 298 282 287 309 309 308 299 295 292 290 286 284 283 287 283 287 288 289 290 289 288 289 285 285 285 288 288 289 289 287
315 316 317 316 316 315 313 314 314 315 314 314 313 313 300 288 287 293 305 301 296 296 292 291 288 286 284 284 287 284 286 288 289 289 290 292 288 288 286 288 289 289 288 287 286
314 316 316 316 315 314 313 313 314 314 314 314 313 313 295 284 293 294 294 295 295 295 293 292 290 290 286 284 284 286 286 286 287 287 291 288 285 287 286 288 286 286 285 286 286
314 315 316 315 314 312 313 313 313 313 313 313 312 306 294 287 293 293 295 294 295 295 292 293 293 289 286 284 287 287 283 284 284 288 288 288 282 283 286 286 284 283 284 285 285
315 315 315 314 313 312 312 312 312 313 310 311 310 300 289 293 293 293 293 294 294 294 295 295 295 291 286 287 284 281 279 276 282 287 288 286 278 284 286 284 282 282 283 284 284
315 315 314 314 312 312 312 311 311 311 310 309 297 292 286 297 290 291 292 290 291 293 294 297 293 286 285 279 276 277 271 272 278 286 286 284 278 284 286 283 281 281 281 282 282
317 315 314 313 310 312 313 311 309 307 303 301 296 288 289 287 291 292 293 292 290 291 292 289 284 280 278 276 270 272 272 274 274 280 282 280 280 283 285 282 279 280 280 280 280
317 315 313 310 310 312 306 296 292 291 294 289 289 288 289 291 292 290 292 290 290 288 282 284 278 275 276 278 279 277 275 274 276 281 280 279 278 283 283 280 278 279 279 279 279
317 314 311 308 309 309 299 293 294 294 292 294 290 289 290 290 286 288 291 287 286 282 283 281 275 278 281 281 279 277 276 273 276 280 279 278 277 278 280 278 277 278 278 278 279
317 314 309 306 307 299 296 296 301 299 292 294 290 288 287 290 285 285 289 287 283 281 279 277 279 283 281 278 277 276 276 273 274 278 282 278 274 272 278 279 280 280 280 279 279
316 313 307 305 301 297 292 299 302 303 289 289 284 286 288 289 285 290 290 287 284 279 280 279 282 281 278 277 278 275 279 278 276 275 267 278 266 270 275 275 277 277 278 278 279
316 310 305 306 297 294 297 300 302 300 282 282 283 289 288 285 285 286 291 287 281 281 280 278 278 278 276 277 279 277 279 278 278 275 272 273 268 269 273 272 274 276 277 277 279
313 307 305 300 298 297 300 301 300 289 281 280 284 283 283 284 284 288 287 288 287 282 281 279 283 280 279 281 280 280 278 277 276 273 263 266 266 268 265 269 273 275 276 276 278
308 305 301 301 297 299 301 299 287 284 284 281 280 283 283 282 282 284 281 278 277 277 275 278 277 280 282 277 279 278 271 260 262 259 259 268 270 268 270 272 268 271 274 275 278
305 303 300 299 300 301 300 293 283 286 287 284 283 286 279 280 280 281 280 277 279 278 273 274 272 277 281 277 274 275 271 262 260 258 262 273 263 270 275 276 270 271 272 276 276
303 299 297 298 301 300 295 285 287 287 285 283 285 283 284 280 280 279 278 277 278 278 274 271 273 280 281 279 276 274 268 273 262 263 262 267 270 273 275 274 274 273 273 273 275
298 296 294 299 301 298 289 289 288 287 285 285 285 283 276 277 280 279 277 279 278 280 279 273 269 277 279 279 278 275 276 264 263 256 254 263 264 267 267 270 272 271 271 272 274
299 294 294 299 299 293 285 288 286 285 287 286 285 284 281 279 277 278 278 279 281 279 280 274 271 274 276 273 272 272 266 270 268 263 256 258 264 265 264 267 267 268 269 270 271
298 290 295 297 288 287 286 287 286 283 287 285 286 284 283 279 277 276 278 279 283 281 277 278 270 268 271 275 276 274 272 269 262 258 258 260 264 271 267 266 264 266 268 270 272
290 287 295 293 284 284 283 284 285 282 284 284 283 283 282 279 277 276 277 282 283 281 277 278 270 267 269 270 274 272 273 269 264 259 255 258 264 273 270 268 268 261 267 268 271
290 284 286 288 286 285 283 283 282 284 284 284 283 283 279 277 278 275 276 280 282 282 285 281 270 271 268 268 269 266 267 271 266 260 256 261 265 269 271 268 268 268 265 266 269
294 288 288 281 283 285 285 285 282 280 283 284 280 281 279 274 275 275 276 277 280 283 279 277 271 270 270 272 272 270 265 263 262 264 262 261 261 268 269 265 264 262 264 267 269
292 289 288 286 286 285 286 284 283 281 281 279 280 280 279 276 278 276 275 275 276 277 275 275 273 271 268 273 272 271 272 270 266 269 267 264 267 271 267 266 265 264 264 266 268
294 295 292 287 285 285 285 287 286 284 283 285 282 281 279 279 280 278 278 278 278 275 272 272 271 268 266 270 265 266 264 268 267 265 268 266 269 270 269 273 268 265 261 263 266
Wind_Speed
11 12 13 13 13 11 11 11 10 8 8 7 8 10 11 11 7 4 4 5 5 11 9 7 6 7 4 4 5 3 6 2 6 5 3 2 1 2 2 2 3 2 4 12 19
8 9 9 10 11 13 12 10 10 11 10 9 9 9 11 11 3 2 5 10 8 9 5 6 6 7 4 3 3 5 4 8 6 5 4 2 4 2 2 5 3 7 10 13 15
8 9 10 10 10 11 12 12 11 10 10 8 9 9 10 6 2 2 9 9 8 7 1 1 0 1 4 3 3 2 4 4 4 5 5 2 4 3 2 3 6 14 21 16 16
7 9 9 9 10 10 11 13 11 11 10 9 9 9 11 1 4 2 11 9 8 5 4 5 5 4 3 2 2 1 2 3 2 2 4 3 7 4 3 6 9 12 15 15 18
8 9 10 11 11 12 11 12 13 12 7 8 8 8 3 1 4 4 9 7 2 3 5 3 5 2 3 1 3 2 2 3 4 4 3 7 3 4 4 7 8 10 12 16 17
8 9 9 10 11 12 13 12 11 11 7 5 8 6 2 2 3 5 6 2 3 4 3 4 3 1 1 1 1 2 2 5 4 3 5 5 1 3 3 8 10 14 15 15 17
8 8 9 11 11 12 13 13 12 9 7 5 5 2 2 5 4 3 6 1 2 1 2 1 2 3 1 2 3 2 5 4 3 4 3 7 2 3 4 7 13 15 14 17 17
9 8 9 11 12 13 12 12 11 10 6 4 3 1 5 1 1 5 6 2 5 2 2 2 2 1 2 3 5 3 5 4 4 3 4 3 5 4 4 9 16 19 17 18 21
9 8 8 11 14 15 14 14 11 10 6 2 1 2 5 2 2 2 3 3 5 2 2 0 4 3 5 4 4 6 2 1 7 1 1 4 3 5 4 7 15 18 18 19 21
8 8 7 10 12 15 14 13 7 7 2 1 1 2 1 1 3 4 4 4 2 3 3 4 5 3 4 5 3 4 3 3 4 4 2 2 4 5 3 6 10 16 19 20 21
9 6 7 8 10 12 6 4 4 3 2 5 1 2 2 3 1 4 3 5 3 5 2 3 4 0 3 2 4 4 3 5 4 4 5 3 4 4 4 7 10 17 19 21 23
12 8 7 8 6 9 2 4 3 2 8 3 1 1 2 1 2 2 5 3 2 3 3 3 1 2 3 3 3 5 4 3 4 3 4 4 6 4 5 8 5 14 19 21 24
13 11 7 6 5 5 3 3 2 2 3 3 0 0 1 1 1 4 5 3 1 3 2 4 1 2 2 2 4 3 3 3 3 6 2 2 5 5 7 5 15 17 18 20 24
16 12 7 4 1 3 1 3 1 1 2 1 1 2 2 1 1 2 2 2 3 4 4 1 1 1 1 1 1 4 2 2 5 1 1 4 6 4 8 15 21 22 22 22 24
18 12 7 4 2 3 3 3 1 0 5 3 1 0 4 3 2 1 2 3 2 3 4 1 1 2 2 1 1 5 6 3 2 2 3 5 2 5 5 16 23 21 23 23 24
17 14 12 4 2 2 4 3 1 3 6 1 0 1 2 3 1 1 3 5 1 2 4 2 1 2 2 4 1 5 1 5 4 3 4 5 4 4 4 9 18 17 22 23 24
17 12 6 2 2 5 4 2 2 4 3 1 0 1 4 2 3 3 4 5 1 3 1 1 1 2 2 4 2 6 6 4 7 6 6 4 1 7 5 6 6 14 19 21 22
18 9 6 3 2 4 2 2 4 2 4 2 3 2 2 1 0 1 2 2 2 2 3 3 2 5 6 3 3 5 3 7 5 2 6 5 4 6 5 8 5 6 10 16 21
13 2 3 2 2 2 0 3 6 5 5 4 0 1 1 1 1 1 1 3 1 2 4 4 1 1 3 4 2 1 5 3 7 1 3 4 6 4 6 11 13 13 16 19 21
4 3 2 3 1 2 1 5 4 1 5 4 5 4 3 3 2 2 1 1 2 1 2 2 4 2 1 1 6 5 4 4 5 4 5 5 5 6 10 15 16 17 17 18 18
4 2 2 3 2 2 4 5 2 1 2 5 4 4 4 3 3 4 2 1 1 2 3 4 3 3 2 4 1 3 4 5 4 4 6 2 7 6 6 8 12 13 12 15 18
3 2 2 2 1 3 3 2 3 2 1 2 2 3 5 4 3 2 4 1 2 3 3 1 5 2 2 2 2 1 3 3 6 6 1 4 9 1 5 6 6 9 10 13 13
3 3 1 2 4 3 2 1 1 4 4 5 4 3 1 5 1 2 3 1 3 2 4 4 1 3 5 6 4 2 3 4 5 4 4 5 8 3 3 8 7 5 9 13 13
3 3 0 1 1 1 4 4 4 1 2 2 2 2 2 4 1 4 3 1 1 2 5 2 3 4 6 6 4 2 0 3 5 4 4 7 8 5 7 8 9 9 6 11 10
2 2 5 4 4 4 4 4 5 5 2 5 1 6 5 2 2 4 3 2 2 2 2 2 2 2 1 0 2 4 4 5 5 5 6 5 5 9 9 6 6 7 7 9 12
3 3 1 2 1 15 8 7 9 5 9 5 5 10 6 5 6 6 6 4 4 3 2 2 2 3 3 2 1 4 5 6 2 3 8 2 9 6 5 3 5 7 8 8 11
2 1 2 2 2 5 6 8 11 11 5 1 8 6 7 3 4 2 5 6 5 6 3 2 4 3 4 3 4 6 9 10 4 3 7 5 8 3 3 6 4 5 4 7 9
Wind_Direction
352 351 350 348 345 346 342 338 327 320 322 331 335 338 342 342 348 26 23 275 322 328 353 326 33 345 35 45 41 85 66 150 195 167 220 188 190 138 60 82 346 250 256 288 303
340 341 339 344 345 339 335 333 331 323 320 322 321 331 328 342 20 41 280 335 330 349 357 10 352 357 36 38 28 80 106 196 195 171 208 202 172 138 25 3 283 273 285 297 312
333 333 333 339 339 336 330 326 327 325 316 312 309 324 319 341 305 226 325 347 339 5 215 151 253 98 58 21 8 150 151 202 231 191 189 189 142 91 71 335 262 294 301 305 314
326 324 325 326 327 330 325 323 316 318 313 319 318 319 320 71 297 265 338 345 357 12 43 32 30 62 76 12 327 99 174 170 240 220 177 188 122 105 147 236 271 279 289 310 318
311 314 321 325 324 323 319 320 316 312 307 310 319 319 339 328 260 326 335 339 18 24 45 60 51 71 107 315 329 183 219 219 238 243 154 114 101 166 223 294 306 317 315 313 317
304 311 312 318 319 319 317 317 317 315 301 293 312 335 308 281 152 331 334 349 48 48 18 52 96 114 107 266 170 282 251 291 317 241 161 124 52 185 274 328 330 333 321 320 324
285 296 307 311 314 315 316 314 314 304 291 285 307 305 276 250 120 40 3 314 53 35 46 20 96 59 63 310 356 286 316 353 0 146 142 120 242 232 279 323 333 322 323 328 326
277 287 300 306 309 309 309 310 303 289 276 269 302 111 259 174 220 16 347 328 9 322 192 274 119 96 29 323 23 50 43 357 294 156 172 127 271 261 304 352 337 333 331 333 328
261 276 295 308 312 314 314 316 293 277 262 207 99 167 280 94 324 342 34 344 308 294 261 283 58 69 26 38 10 9 250 328 320 65 157 192 274 267 308 345 330 333 336 331 326
244 266 289 305 316 312 309 301 286 296 227 205 186 295 9 306 6 343 2 4 336 315 91 59 47 60 36 52 246 288 312 239 245 287 327 260 277 286 311 323 310 334 337 331 327
231 238 275 298 312 318 333 2 4 278 345 230 160 276 79 332 155 36 1 339 242 64 144 33 56 83 256 222 267 241 241 232 253 277 338 208 235 238 351 320 325 341 338 332 327
217 218 252 286 312 342 30 64 78 242 297 254 172 15 56 34 317 27 3 226 199 142 100 45 224 200 232 211 285 246 231 274 293 269 314 203 254 292 353 301 320 344 337 332 330
207 204 226 282 328 51 57 117 289 166 268 326 95 34 52 3 74 328 7 303 118 120 142 171 153 312 192 179 337 247 221 144 236 316 254 100 313 338 313 290 346 352 341 340 338
198 194 196 235 258 142 87 199 331 27 310 210 29 36 49 89 53 17 32 289 16 145 134 141 26 5 228 230 132 292 196 342 276 162 228 23 286 305 322 338 350 349 344 343 335
188 178 190 195 145 157 112 161 152 260 314 47 323 183 61 41 312 61 21 304 124 137 116 129 19 355 326 277 174 253 313 238 176 145 35 338 59 263 3 350 333 342 339 339 334
162 154 138 97 48 116 131 153 169 40 255 244 128 23 62 15 16 312 22 43 359 81 48 126 125 76 285 305 248 318 17 40 55 65 31 256 116 306 343 291 320 342 338 335 334
137 148 94 96 171 151 132 161 36 189 67 244 0 354 108 259 266 34 28 23 126 89 228 339 43 326 44 332 42 27 45 347 359 9 212 288 64 244 260 284 264 319 328 331 332
125 115 61 46 114 145 132 68 210 236 222 37 21 331 217 61 73 6 110 96 40 105 106 160 315 12 346 68 265 27 118 138 239 300 284 307 269 286 242 295 280 288 306 336 336
117 52 47 57 103 50 96 198 214 202 125 135 89 233 257 151 183 315 41 165 164 133 155 113 72 58 76 36 44 315 43 179 100 171 38 285 294 332 328 332 344 344 348 350 336
94 85 53 59 305 39 44 235 230 83 114 110 197 177 250 182 181 30 177 120 133 79 123 201 72 24 70 345 45 87 153 44 4 44 330 311 286 253 336 324 332 344 344 342 337
89 126 49 2 265 91 226 228 177 85 88 178 203 187 237 204 201 205 193 137 154 126 96 133 99 280 19 18 8 349 19 53 105 105 151 305 274 208 243 285 308 321 329 335 333
135 180 19 26 150 204 217 216 80 177 72 170 199 218 195 200 204 230 190 103 150 146 147 166 131 112 203 303 283 237 124 121 116 280 81 142 276 257 235 285 300 310 322 329 332
114 108 53 44 218 187 302 188 223 164 208 181 209 224 136 201 205 154 118 102 137 127 173 181 41 43 347 357 352 231 134 121 109 84 213 125 270 235 294 321 316 304 334 325 342
132 122 63 195 224 328 169 219 215 241 196 151 169 239 150 182 52 176 144 150 140 143 122 100 111 163 188 204 134 148 254 140 118 105 192 230 295 284 303 317 330 333 352 319 336
159 206 168 180 235 205 195 169 159 204 237 167 206 211 161 151 61 193 131 140 33 181 74 136 149 147 298 237 170 199 163 181 155 180 158 244 226 285 290 274 288 293 330 334 351
169 158 148 181 153 186 193 205 185 162 163 215 223 183 195 163 186 206 132 200 190 76 93 329 129 116 336 105 1 268 211 189 145 187 261 218 282 217 265 274 331 314 341 343 341
121 121 125 123 195 176 201 197 204 139 210 164 190 143 183 133 88 52 82 71 111 140 138 138 135 110 273 3 336 316 216 181 179 217 158 180 229 202 290 296 286 314 330 316 329